Regional Weather Roundup
Issued by NWS New Orleans/Baton Rouge, LA

Home | Current Version | Previous Version | Text Only | Print | Product List | Glossary Off
Versions: 1 2 3 4 5 6 7 8 9 10 11 12 13 14 15 16 17 18 19 20 21 22 23 24 25 26 27 28 29 30 31 32 33 34 35 36 37 38 39 40 41 42 43 44 45 46 47 48 49 50

831
ASUS44 KLIX 300511
RWRLIX
NEW ORLEANS REGIONAL WEATHER ROUNDUP
NATIONAL WEATHER SERVICE NEW ORLEANS LA
1200 AM CDT MON MAR 30 2015

NOTE: "FAIR" INDICATES FEW OR NO CLOUDS BELOW 12,000 FEET WITH NO
      SIGNIFICANT WEATHER AND/OR OBSTRUCTIONS TO VISIBILITY.
      SKY/WX - SKY CONDITION AND SIGNIFICANT WEATHER.
      TMP - AIR TEMPERATURE.     DP    - DEWPOINT TEMPERATURE.
      RH  - RELATIVE HUMIDITY.   PRES  - PRESSURE.
      HI  - HEAT INDEX.          WCI   - WIND CHILL INDEX.

*  THESE STATIONS ARE NOT NWS OR FAA STATIONS AND ARE NOT UNDER
   NWS QUALITY CONTROL.

LAZ038-040-048-061>063-065>067-069-300600-
SOUTHEAST LOUISIANA

CITY           SKY/WX    TMP DP  RH WIND       PRES   REMARKS
N.O. AUDUBON     N/A     67  67 100 MISG        N/A
N.O. INTL ARPT PTCLDY    65  61  87 S3        30.21F
N.O. LAKEFRONT CLEAR     66  61  84 S7        30.22F
SLIDELL        MOCLDY    64  63  96 S5        30.21F
BATON ROUGE    MOCLDY    67  60  78 S9        30.20S
BOOTHVILLE     MOCLDY    66  63  90 SE5       30.24F
BELLE CHASSE   CLEAR     63  60  90 S3        30.21F
BOGALUSA*        N/A     65  61  86 S8        30.22S
GALLIANO*      CLEAR     65  62  93 S5        30.22F
NEW ROADS*       N/A     65  60  83 S7        30.18F
GONZALES*        N/A     64  62  93 CALM      30.21S
HAMMOND*       CLEAR     63  59  88 S3        30.23R
HOUMA*         CLEAR     67  64  90 S5        30.21F
PORT FOURCHON* PTCLDY    70  64  83 CALM      30.25F

$$

MSZ070-080>082-300600-
SOUTHERN MISSISSIPPI

CITY           SKY/WX    TMP DP  RH WIND       PRES   REMARKS
MCCOMB         CLEAR     64  58  80 S8        30.18F
GULFPORT       PTCLDY    67  61  81 S9        30.21F
BILOXI         CLEAR     67  62  86 S15       30.21F
PASCAGOULA     CLEAR     65  61  87 S8        30.23F

$$

COASTAL OBSERVATIONS
LAKE AND NEARSHORE STATIONS

STATION/POSITION TIME  TEMP    WIND        PRES    WAVE
                       AIR SEA DIR/SP/G            HT/PER
                 (UTC) (F)     (DEG/KT/KT) (MB)    (FT/S)
PASCAGOULA       0400   67     180/ 10/ 13 1023.5
WAVELAND YACHT   0400   67 66  190/  8/ 12 1023.3
GRAND ISLE       0400   69 69  190/  3/  6 1023.5
SOUTHWEST PASS   0400   71 54  190/  9/ 10 1024.4
NEW CANAL        0400   68     180/  3/  4 1023.6
SHELL BEACH      0400   67 69  170/  9/ 13 1023.4

OFFSHORE STATIONS

STATION/POSITION TIME  TEMP    WIND        PRES    WAVE
                       AIR SEA DIR/SP/G            HT/PER
                 (UTC) (F)     (DEG/KT/KT) (MB)    (FT/S)
64 S DAUPHIN ISL 0450   69 70  180/ 17/ 19 1024.5    3/ 4

$$




USA.gov is the U.S. government's official web portal to all federal, state and local government web resources and services.